Regional Weather Roundup
Issued by NWS Burlington, VT

Current Version | Previous Version | Text Only | Print | Product List | Glossary On
Versions: 1 2 3 4 5 6 7 8 9 10 11 12 13 14 15 16 17 18 19 20 21 22 23 24 25 26 27 28 29 30 31 32 33 34 35 36 37 38 39 40 41 42 43 44 45 46 47 48 49 50
000 ASUS41 KBTV 180330 RWRBTV VERMONT REGIONAL WEATHER ROUNDUP NATIONAL WEATHER SERVICE BURLINGTON VT 1100 PM EDT SUN JUN 17 2018 NOTE: "FAIR" INDICATES FEW OR NO CLOUDS BELOW 12,000 FEET WITH NO SIGNIFICANT WEATHER AND/OR OBSTRUCTIONS TO VISIBILITY. * THESE REPORTS ARE NOT UNDER NWS QUALITY CONTROL AND/OR DO NOT REPORT WEATHER SUCH AS PRECIPITATION AND FOG. VTZ001>019-180400- _____VERMONT_____ CITY SKY/WX TMP DP RH WIND PRES REMARKS BURLINGTON FAIR 78 46 32 S10 29.95F MONTPELIER FAIR 65 49 56 CALM 30.04F MORRISVILLE FAIR 61 58 90 CALM 29.98F ST. JOHNSBURY* N/A 65 58 78 MISG 29.99R LYNDONVILLE* FAIR 67 53 61 CALM 30.02F MIDDLEBURY* FAIR 74 48 40 SE5 29.97F RUTLAND* FAIR 64 53 67 SE12 30.02S SPRINGFIELD FAIR 61 53 75 N3 30.02S HIGHGATE* FAIR 75 50 41 S5 29.93F NEWPORT* FAIR 69 49 48 CALM 29.98F BENNINGTON FAIR 68 54 60 VRB5 30.02F ISLAND POND* N/A 61 N/A N/A CALM N/A GALLUP MILLS* N/A 57 N/A N/A MISG N/A UNION VILLAGE* N/A 61 N/A N/A MISG N/A MT. MANSFIELD* N/A 64 N/A N/A SW26G39 N/A _____LAKE CHAMPLAIN_____ CITY SKY/WX TMP DP RH WIND PRES REMARKS BURTON ISLAND* N/A 73 55 53 SW9G15 N/A COLCHESTER RF* N/A 72 54 53 S21 N/A DIAMOND ISL* N/A 73 55 53 SW1 N/A $$ NYZ007-026>031-035-052-083-087-180400- _____NORTHERN NEW YORK_____ CITY SKY/WX TMP DP RH WIND PRES REMARKS PLATTSBURGH FAIR 69 58 67 CALM 29.94R SARANAC LAKE FAIR 67 62 84 CALM 30.01S MASSENA FAIR 73 64 73 SW7 29.93S OGDENSBURG* FAIR 71 64 78 S3 29.93F POTSDAM* MOCLDY 72 63 73 S5 29.94S STARK FALLS* N/A 73 N/A N/A S6 N/A WATERTOWN FAIR 68 64 87 CALM 29.95R ALBANY MOCLDY 77 58 51 S8 29.99F GLENS FALLS FAIR 62 60 93 CALM 29.99S $$ NHZ002-005-011-180400- _____NEW HAMPSHIRE_____ CITY SKY/WX TMP DP RH WIND PRES REMARKS LEBANON FAIR 61 54 77 CALM 30.01R KEENE FAIR 62 55 77 CALM 30.03S MT WASHINGTON PTCLDY 54 43 66 W33 N/A PLYMOUTH FAIR 63 56 78 CALM 30.03S WHITEFIELD FAIR 60 54 80 CALM 30.01S $$ _____REGIONAL QUEBEC LOCATIONS_____ CITY SKY/WX TMP DP RH WIND PRES REMARKS MONTREAL MOCLDY 77 61 57 SW12 29.89F QUEBEC CITY CLOUDY 66 64 94 E2 29.87F SHERBROOKE CLEAR 72 50 46 SW2 29.95 _____REGIONAL ONTARIO LOCATIONS_____ CITY SKY/WX TMP DP RH WIND PRES REMARKS OTTAWA CLOUDY 75 63 64 S7 29.90S ______KEY______ VSB - VISIBILITY IN MILES WCI - WIND CHILL INDEX HX - HEAT INDEX $$ NNNN

USA.gov is the U.S. government's official web portal to all federal, state and local government web resources and services.